"Pseudo-MPEC" for CEADUP2

Created 2026 Mar 10 0:35:18 UT using Find_Orb

Click here for an explanation of pseudo-MPECs

 
 Astrometry: 
     CEADUP2*1C2026 03 08.37520511 41 19.532+07 16 59.23   ~389o 20.52GVNEOCPG96
     CEADUP2 1C2026 03 08.38080811 41 21.192+07 15 54.58   ~389o 20.43GVNEOCPG96
     CEADUP2 1C2026 03 08.38641411 41 22.891+07 14 49.67   ~389o 20.51GVNEOCPG96
     CEADUP2 1C2026 03 08.39202311 41 24.583+07 13 44.62   ~389o 20.43GVNEOCPG96
     CEADUP2  C2026 03 08.41825211 41 32.155+07 08 38.13   ~38Ao 20.9 GWNEOCPH01
     CEADUP2  C2026 03 08.42173911 41 33.205+07 07 57.69   ~38Ao 20.5 GWNEOCPH01
     CEADUP2  C2026 03 08.43469311 41 37.184+07 05 27.63   ~38Ao 19.9 GWNEOCPH01
     CEADUP2  C2026 03 08.43906811 41 38.510+07 04 37.24   ~38Ao 19.8 GWNEOCPH01
     CEADUP2 1C2026 03 08.44380711 41 40.225+07 03 46.04   ~38B5 20.34GVNEOCPI52
     CEADUP2 1C2026 03 08.44546211 41 40.722+07 03 26.42   ~38B5 20.03GVNEOCPI52
     CEADUP2 1C2026 03 08.44711711 41 41.215+07 03 07.16   ~38B5 20.32GVNEOCPI52
     CEADUP2 1C2026 03 08.44877211 41 41.726+07 02 48.26   ~38B5 20.36GVNEOCPI52
     CEADUP2 KB2026 03 08.95871 11 44 38.61 +05 24 09.1    ~38No 20.2 GXNEOCPM45
     CEADUP2 KB2026 03 08.96309 11 44 39.90 +05 23 18.5    ~38No 20.1 GXNEOCPM45
     CEADUP2 KB2026 03 08.96727 11 44 41.16 +05 22 30.4    ~38No 20.5 GXNEOCPM45
     CEADUP2 |C2026 03 09.13254011 45 41.140+04 53 00.90   ~3945 20.4 GVNEOCP807
     CEADUP2 |C2026 03 09.14169211 45 43.880+04 51 14.90   ~3945 20.3 GVNEOCP807
     CEADUP2 |C2026 03 09.15083011 45 46.620+04 49 28.90   ~3945 20.6 GVNEOCP807
     CEADUP2 KC2026 03 09.17676011 45 55.73 +04 42 10.4    ~394Z 20.7 GVNEOCPH21
     CEADUP2 KC2026 03 09.17955611 45 56.59 +04 41 37.9    ~394Z 20.4 GVNEOCPH21

Station data:
(807) Cerro Tololo Observatory, La Serena  (S30.169133 W70.805900)  Chile.
   Observer R. Holmes. 0.61-m f/6.5 astrograph + CCD.
(G96) Mt. Lemmon Survey  (N32.442729 W110.788720)  US/Arizona.  Observer E.
   J. Christensen. Measurers T. Beuden, V. F. Carvajal, D. Fay, J. B.
   Fazekas, D. C. Fuls, A. R. Gibbs, A. D. Grauer, H. Gröller, J. K. Hogan,
   R. A. Kowalski, S. M. Larson, G. J. Leonard, D. Rankin, R. L. Seaman, F.
   C. Shelly, K. W. Wierzchoś. 1.5-m reflector + 10K CCD.
(H01) Magdalena Ridge Observatory, Socorro  (N33.984833 W107.189333)  US/New
   Mexico.  Observers W. H. Ryan, E. V. Ryan. Measurer W. H. Ryan. 2.4-m
   f/8.9 reflector + CCD.
(H21) Astronomical Research Observatory, Westfield  (N39.483054 W87.968270)
   US/Illinois.  Observer R. Holmes. Measurers S. Foglia, L. Buzzi, T.
   Linder, R. Holmes. 0.40-m f/5.32 astrograph + CCD.
(I52) Steward Observatory, Mt. Lemmon Station  (N32.442570 W110.788920)
   US/Arizona. Measurers T. Beuden, V. F. Carvajal, D. Fay, J. B. Fazekas, D.
   C. Fuls, A. R. Gibbs, A. D. Grauer, H. Gröller, J. K. Hogan, R. A.
   Kowalski, S. M. Larson, G. J. Leonard, D. Rankin, R. L. Seaman, F. C.
   Shelly, K. W. Wierzchoś. 1.0-m prime focus + CCD.
(M45) Starhopper Observatory, Sfantu Gheorghe  (N45.865494 E25.768890)
   Romania.  Observer F. Ursache. 0.41-m f/7.5 reflector + CMO.

Orbital elements:  CEADUP2
   Perihelion 2026 Mar 8.684176 +/- 0.104 TT = 16:25:12.7 (JD 2461108.184176)
Epoch 2026 Mar  9.0 TT = JDT 2461108.5   Earth MOID: 0.0718      AutoNEOCP
M   0.084598275 +/- 0.027           (J2000 ecliptic)
n   0.267865012 +/- 0.00139         Peri.  178.087437 +/- 0.11
a   2.383373219 +/- 0.00826         Node   350.032603 +/- 0.0015
e   0.55322789 +/- 0.00148          Incl.    8.424851 +/- 0.014
P   3.67949                H 25.69  G  0.15   U  8.3
q 1.064824675 +/- 0.000158    Q 3.701921763 +/- 0.0164
From 20 observations 2026 Mar. 8-9 (19.3 hr); mean residual 0".22
Residuals in arcseconds: 
260308 G96  .31-  .06+    260308 H01  .08+  .10+    260308 M45  .51-  .17+    
260308 G96  .44-  .13+    260308 I52  .28+  .44+    260309 807  .08+  .12+    
260308 G96  .03-  .01-    260308 I52  .14+  .00     260309 807  .11+  .02+    
260308 G96  .22+  .24-    260308 I52  .06-  .09-    260309 807  .37+  .21-    
260308 H01  .15+  .08-    260308 I52  .00   .19+    260309 H21  .02-  .20+    
260308 H01  .01-  .15-    260308 M45  .00   .35-    260309 H21  .13+  .07+    
260308 H01  .32+  .20-    260308 M45  .48-  .18-    

Ephemerides (geocentric):
Date (UTC) HH   RA             Dec           delta  r     elong  mag " sig PA
---- --------  ------------   ------------  ------ ------ -----  --- --------
2026 03 10 01  11 50 41.959   +01 56 04.15  .07261 1.0650 172.0 20.7 .549  17
2026 03 10 02  11 50 55.842   +01 48 01.01  .07262 1.0650 171.9 20.7 .585  15
2026 03 10 03  11 51 09.718   +01 39 57.97  .07263 1.0650 171.8 20.7 .621  14
2026 03 10 04  11 51 23.585   +01 31 55.04  .07263 1.0650 171.8 20.7 .659  13
2026 03 10 05  11 51 37.446   +01 23 52.21  .07264 1.0650 171.7 20.7 .698  12
2026 03 10 06  11 51 51.299   +01 15 49.50  .07265 1.0650 171.7 20.7 .738  11
2026 03 10 07  11 52 05.144   +01 07 46.93  .07266 1.0650 171.6 20.7 .779  11
2026 03 10 08  11 52 18.981   +00 59 44.48  .07267 1.0650 171.5 20.7 .821  10
2026 03 10 09  11 52 32.811   +00 51 42.19  .07268 1.0650 171.5 20.7 .864   9
2026 03 10 10  11 52 46.633   +00 43 40.04  .07269 1.0650 171.4 20.7 .909   8
2026 03 10 11  11 53 00.447   +00 35 38.06  .07270 1.0651 171.4 20.7 .954   7
2026 03 10 12  11 53 14.253   +00 27 36.24  .07271 1.0651 171.3 20.7 1.00   7
2026 03 10 13  11 53 28.051   +00 19 34.61  .07272 1.0651 171.2 20.7 1.05   6
2026 03 10 14  11 53 41.841   +00 11 33.15  .07274 1.0651 171.2 20.7 1.10   6
2026 03 10 15  11 53 55.623   +00 03 31.89  .07275 1.0651 171.1 20.7 1.15   5
2026 03 10 16  11 54 09.397   -00 04 29.17  .07276 1.0651 171.0 20.7 1.20   4
2026 03 10 17  11 54 23.162   -00 12 30.02  .07278 1.0651 170.9 20.7 1.25   4
2026 03 10 18  11 54 36.920   -00 20 30.65  .07279 1.0651 170.9 20.7 1.30   3
2026 03 10 19  11 54 50.668   -00 28 31.06  .07281 1.0651 170.8 20.7 1.36   3
2026 03 10 20  11 55 04.409   -00 36 31.24  .07282 1.0652 170.7 20.7 1.41   2
2026 03 10 21  11 55 18.141   -00 44 31.18  .07284 1.0652 170.6 20.7 1.47   2
2026 03 10 22  11 55 31.865   -00 52 30.87  .07286 1.0652 170.6 20.7 1.52   1
2026 03 10 23  11 55 45.580   -01 00 30.30  .07287 1.0652 170.5 20.7 1.58   1
2026 03 11 00  11 55 59.287   -01 08 29.46  .07289 1.0652 170.4 20.7 1.64   1
2026 03 11 01  11 56 12.984   -01 16 28.36  .07291 1.0652 170.3 20.7 1.70   0
2026 03 11 02  11 56 26.674   -01 24 26.97  .07293 1.0652 170.3 20.8 1.76   0
2026 03 11 03  11 56 40.354   -01 32 25.30  .07295 1.0653 170.2 20.8 1.82 179
2026 03 11 04  11 56 54.026   -01 40 23.33  .07297 1.0653 170.1 20.8 1.89 179
2026 03 11 05  11 57 07.688   -01 48 21.06  .07299 1.0653 170.0 20.8 1.95 179
2026 03 11 06  11 57 21.342   -01 56 18.48  .07301 1.0653 169.9 20.8 2.02 178
2026 03 11 07  11 57 34.987   -02 04 15.58  .07303 1.0653 169.9 20.8 2.08 178
2026 03 11 08  11 57 48.623   -02 12 12.36  .07305 1.0653 169.8 20.8 2.15 178
2026 03 11 09  11 58 02.250   -02 20 08.80  .07308 1.0653 169.7 20.8 2.22 177
2026 03 11 10  11 58 15.868   -02 28 04.90  .07310 1.0654 169.6 20.8 2.29 177
2026 03 11 11  11 58 29.476   -02 36 00.65  .07312 1.0654 169.5 20.8 2.36 177
2026 03 11 12  11 58 43.076   -02 43 56.04  .07315 1.0654 169.4 20.8 2.43 177
2026 03 11 13  11 58 56.666   -02 51 51.07  .07317 1.0654 169.3 20.8 2.50 176
2026 03 11 14  11 59 10.246   -02 59 45.73  .07320 1.0654 169.3 20.8 2.57 176
2026 03 11 15  11 59 23.818   -03 07 40.01  .07322 1.0654 169.2 20.8 2.65 176
2026 03 11 16  11 59 37.380   -03 15 33.91  .07325 1.0655 169.1 20.8 2.72 176
2026 03 11 17  11 59 50.932   -03 23 27.41  .07328 1.0655 169.0 20.8 2.80 175
2026 03 11 18  12 00 04.475   -03 31 20.51  .07330 1.0655 168.9 20.8 2.87 175
2026 03 11 19  12 00 18.008   -03 39 13.21  .07333 1.0655 168.8 20.8 2.95 175
2026 03 11 20  12 00 31.532   -03 47 05.48  .07336 1.0655 168.7 20.8 3.03 175
2026 03 11 21  12 00 45.046   -03 54 57.34  .07339 1.0656 168.6 20.8 3.11 174
2026 03 11 22  12 00 58.550   -04 02 48.77  .07342 1.0656 168.6 20.8 3.19 174
2026 03 11 23  12 01 12.045   -04 10 39.76  .07345 1.0656 168.5 20.8 3.27 174
2026 03 12 00  12 01 25.530   -04 18 30.30  .07348 1.0656 168.4 20.8 3.35 174